Deptford, New Jersey, United States
Lat: 39.83N, Lon: 75.13W
Wx Zone: NJZ017
Local Info
Past Weather Observations for Friday, October 24, 2014

NOTE: This archive is for the closest National Weather Service station to Deptford. Information may differ from the station used for current weather conditions.

Click here for Long-term Archive

Time Weather Temperature Dewpoint Humidity Pressure Winds Precip Visibility
23:54
Partly Cloudy
55°F / 13°C 37°F / 3°C 51% 29.92 in
(1013 mb)
WNW 6.9 mph
(WNW 11 kph)
- 10SM
22:54
Partly Cloudy
57°F / 14°C 37°F / 3°C 48% 29.89 in
(1012 mb)
W 6.9 mph
(W 11 kph)
- 10SM
21:54
Mostly Cloudy
59°F / 15°C 37°F / 3°C 45% 29.89 in
(1012 mb)
NW 8.1 mph
(NW 13 kph)
- 10SM
20:54
Mostly Cloudy
61°F / 16°C 37°F / 3°C 42% 29.89 in
(1012 mb)
W 5.8 mph
(W 9 kph)
- 10SM
19:54
Mostly Cloudy
61°F / 16°C 37°F / 3°C 42% 29.89 in
(1012 mb)
WNW 5.8 mph
(WNW 9 kph)
- 10SM
18:54
Mostly Cloudy
63°F / 17°C 41°F / 5°C 45% 29.86 in
(1011 mb)
SSW 9.2 mph
(SSW 15 kph)
- 10SM
17:54
Mostly Cloudy
64°F / 18°C 43°F / 6°C 46% 29.83 in
(1010 mb)
W 11.5 mph
(W 19 kph)
- 10SM
16:54
Mostly Cloudy
66°F / 19°C 43°F / 6°C 43% 29.83 in
(1010 mb)
W 10.4 mph
(W 17 kph)
- 10SM
15:54
Mostly Cloudy
68°F / 20°C 45°F / 7°C 43% 29.8 in
(1009 mb)
NW 13.8 mph
(NW 22 kph)
- 10SM
14:54
Mostly Cloudy
70°F / 21°C 45°F / 7°C 40% 29.8 in
(1009 mb)
NW 12.7 mph
(NW 20 kph)
- 10SM
13:54
Partly Cloudy
68°F / 20°C 45°F / 7°C 43% 29.8 in
(1009 mb)
NW 15 mph
(NW 24 kph)
- 10SM
12:54
Partly Cloudy
68°F / 20°C 43°F / 6°C 40% 29.83 in
(1010 mb)
NW 17.3 mph
(NW 28 kph)
- 10SM
11:54
Partly Cloudy
66°F / 19°C 43°F / 6°C 43% 29.83 in
(1010 mb)
NW 19.6 mph
(NW 32 kph)
- 10SM
10:54
Partly Cloudy
64°F / 18°C 45°F / 7°C 49% 29.89 in
(1012 mb)
NNW 13.8 mph
(NNW 22 kph)
- 10SM
09:54
Partly Cloudy
63°F / 17°C 45°F / 7°C 52% 29.89 in
(1012 mb)
NW 11.5 mph
(NW 19 kph)
- 10SM
08:54
Mostly Cloudy
59°F / 15°C 43°F / 6°C 55% 29.89 in
(1012 mb)
NNW 21.9 mph
(NNW 35 kph)
- 10SM
07:54
Partly Cloudy
57°F / 14°C 45°F / 7°C 63% 29.89 in
(1012 mb)
NNW 13.8 mph
(NNW 22 kph)
- 10SM
06:54
Mostly Cloudy
57°F / 14°C 45°F / 7°C 63% 29.86 in
(1011 mb)
NW 9.2 mph
(NW 15 kph)
- 10SM
05:54
Mostly Cloudy
57°F / 14°C 45°F / 7°C 63% 29.86 in
(1011 mb)
NW 15 mph
(NW 24 kph)
- 10SM
04:54
Mostly Cloudy
55°F / 13°C 45°F / 7°C 67% 29.86 in
(1011 mb)
NNW 11.5 mph
(NNW 19 kph)
- 10SM
03:54
Overcast
57°F / 14°C 45°F / 7°C 63% 29.86 in
(1011 mb)
NNW 10.4 mph
(NNW 17 kph)
- 10SM
02:54
Partly Cloudy
55°F / 13°C 45°F / 7°C 67% 29.83 in
(1010 mb)
NW 4.6 mph
(NW 7 kph)
- 10SM
01:54
Mostly Cloudy
55°F / 13°C 45°F / 7°C 67% 29.83 in
(1010 mb)
NW 11.5 mph
(NW 19 kph)
- 10SM
00:54
Overcast
55°F / 13°C 45°F / 7°C 67% 29.83 in
(1010 mb)
NW 9.2 mph
(NW 15 kph)
- 10SM
Time Weather Temperature Dewpoint Humidity Pressure Winds Precip Visibility


Weather for websites

WeatherForYou.com, LLC is not responsible for any damages or problems caused by this service. Current weather conditions are obtained from the closest station including government and personal stations which may have varying degrees of accuracy. Weather forecasts are derived from the NOAA NDFD. Like all things, this site belongs to Jesus Christ... He just trusts me to maintain it. If you have any questions or comments email webmaster@weatherforyou.com

Copyright © 2014, WeatherForYou.com LLC. All rights reserved.